UBT795 EGKK-FACT

Flight info

Callsign UBT795
Flight time N/A
Altitude 35000
Route SFD Y47 DRAKE N859 SITET/N0491F350 UN859 SOPIL DCT BALAN DCT EVPOK DCT NARAK DCT GAI DCT LOMRA DCT ROCAN DCT PUMAL DCT XEPLA DCT BCN DCT GARBI DCT LARPA N859 MOGIL UZ333 ZEM/N0488F360 UZ333 KAHIL UB726 GHA/N0491F350 UA615 ATCHA/N0489F370 UA615 TMS UA604 AS DCT MOLIT UA604 OBUDU DCT KOKAM DCT ARASI DCT ODOVA UG861 ONRAV/N0490F390 UG861 MOVOD DCT SETOL DCT LIKAD UR526 VNA UN187 VEDRY/N0486F400 UN185 OKLOK UQ23 DUMDO DCT ERDAS ERDAS1C
Aircraft B789/H-SDE1E2E3FGHIJ2J3J4J5M1RWXY/LB1D1

Departure

Time 2026-05-03 21:22
Airport London Gatwick Airport (EGKK)

Arrival

Time N/A
Airport Cape Town International Airport (FACT)
Time Latitude Longitude Altitude Speed Heading
2026-05-03 20:46 51.15825 -0.16955 210 ft 0 kts 89°
2026-05-03 21:11 51.15824 -0.16982 213 ft 4 kts 73°
2026-05-03 21:11 51.15812 -0.17015 223 ft 4 kts 41°
2026-05-03 21:11 51.15793 -0.17040 224 ft 4 kts 55°
2026-05-03 21:12 51.15789 -0.17056 214 ft 4 kts 104°
2026-05-03 21:12 51.15796 -0.17079 225 ft 4 kts 155°
2026-05-03 21:12 51.15820 -0.17089 217 ft 4 kts 169°
2026-05-03 21:12 51.15827 -0.17090 215 ft 0 kts 168°
2026-05-03 21:16 51.15821 -0.17089 215 ft 2 kts 168°
2026-05-03 21:16 51.15806 -0.17084 225 ft 3 kts 168°
2026-05-03 21:16 51.15775 -0.17073 220 ft 7 kts 168°
2026-05-03 21:17 51.15710 -0.17050 212 ft 11 kts 167°
2026-05-03 21:17 51.15665 -0.17047 216 ft 8 kts 202°
2026-05-03 21:17 51.15629 -0.17150 216 ft 10 kts 256°
2026-05-03 21:17 51.15612 -0.17253 216 ft 9 kts 256°
2026-05-03 21:18 51.15597 -0.17350 216 ft 9 kts 256°
2026-05-03 21:18 51.15572 -0.17429 216 ft 8 kts 211°
2026-05-03 21:18 51.15511 -0.17429 216 ft 11 kts 168°
2026-05-03 21:18 51.15439 -0.17404 214 ft 10 kts 167°
2026-05-03 21:19 51.15370 -0.17379 218 ft 12 kts 167°
2026-05-03 21:19 51.15270 -0.17339 213 ft 15 kts 155°
2026-05-03 21:19 51.15191 -0.17244 219 ft 12 kts 120°
2026-05-03 21:19 51.15192 -0.17129 217 ft 10 kts 80°
2026-05-03 21:20 51.15206 -0.17023 213 ft 10 kts 78°
2026-05-03 21:20 51.15220 -0.16920 217 ft 9 kts 78°
2026-05-03 21:20 51.15218 -0.16832 214 ft 6 kts 120°
2026-05-03 21:20 51.15192 -0.16809 219 ft 4 kts 170°
2026-05-03 21:21 51.15138 -0.16810 220 ft 11 kts 206°
2026-05-03 21:21 51.15101 -0.16954 217 ft 20 kts 257°
2026-05-03 21:21 51.15045 -0.17362 219 ft 66 kts 258°
2026-05-03 21:21 51.14902 -0.18402 219 ft 126 kts 257°
2026-05-03 21:22 51.14673 -0.20051 214 ft 177 kts 257°
2026-05-03 21:22 51.14404 -0.22096 736 ft 189 kts 258°
2026-05-03 21:22 51.14131 -0.24173 1624 ft 193 kts 258°
2026-05-03 21:22 51.13842 -0.26326 2253 ft 207 kts 258°
2026-05-03 21:23 51.13512 -0.28686 2664 ft 225 kts 256°
2026-05-03 21:23 51.13150 -0.31106 3510 ft 225 kts 256°
2026-05-03 21:23 51.12795 -0.33552 4266 ft 229 kts 256°
2026-05-03 21:23 51.12456 -0.36043 4987 ft 235 kts 257°
2026-05-03 21:24 51.12079 -0.38654 5024 ft 243 kts 249°
2026-05-03 21:24 51.11122 -0.40756 5022 ft 234 kts 217°
2026-05-03 21:24 51.09692 -0.41859 5024 ft 233 kts 191°
2026-05-03 21:24 51.08075 -0.41898 5017 ft 234 kts 175°
2026-05-03 21:25 51.06419 -0.41670 5021 ft 251 kts 175°
2026-05-03 21:25 51.04697 -0.41423 5007 ft 265 kts 175°
2026-05-03 21:25 51.02854 -0.41185 5005 ft 265 kts 176°
2026-05-03 21:25 51.01008 -0.40958 4987 ft 266 kts 176°
2026-05-03 21:26 50.99151 -0.40724 5272 ft 268 kts 176°
2026-05-03 21:26 50.97289 -0.40486 6127 ft 273 kts 176°
2026-05-03 21:26 50.95434 -0.40249 7206 ft 265 kts 176°
2026-05-03 21:26 50.93568 -0.40014 7975 ft 272 kts 176°
2026-05-03 21:27 50.91675 -0.39776 8827 ft 274 kts 176°
2026-05-03 21:27 50.89779 -0.39536 9655 ft 278 kts 176°
2026-05-03 21:27 50.87819 -0.39288 10237 ft 291 kts 176°
2026-05-03 21:27 50.85707 -0.39023 10377 ft 318 kts 176°
2026-05-03 21:28 50.83448 -0.38483 10662 ft 338 kts 159°
2026-05-03 21:28 50.81356 -0.36773 11479 ft 341 kts 151°
2026-05-03 21:28 50.79340 -0.34734 12261 ft 346 kts 147°
2026-05-03 21:28 50.77356 -0.32554 13033 ft 349 kts 147°
2026-05-03 21:29 50.75326 -0.30413 13803 ft 353 kts 149°
2026-05-03 21:29 50.73246 -0.28305 14478 ft 356 kts 149°
2026-05-03 21:29 50.71155 -0.26163 15145 ft 360 kts 149°
2026-05-03 21:29 50.69078 -0.24004 15808 ft 364 kts 148°
2026-05-03 21:30 50.66964 -0.21771 16465 ft 367 kts 148°
2026-05-03 21:30 50.64820 -0.19507 17121 ft 371 kts 149°
2026-05-03 21:30 50.62657 -0.17245 17743 ft 375 kts 149°
2026-05-03 21:30 50.60471 -0.14964 18362 ft 379 kts 149°
2026-05-03 21:31 50.58263 -0.12656 18932 ft 381 kts 149°
2026-05-03 21:31 50.56048 -0.10340 19512 ft 383 kts 149°
2026-05-03 21:31 50.53814 -0.08010 20064 ft 386 kts 149°
2026-05-03 21:31 50.51572 -0.05676 20612 ft 388 kts 149°
2026-05-03 21:32 50.49341 -0.03355 21141 ft 390 kts 150°
2026-05-03 21:32 50.46936 -0.01424 21633 ft 387 kts 163°
2026-05-03 21:32 50.44330 -0.00415 22108 ft 385 kts 176°
2026-05-03 21:32 50.41656 -0.00371 22588 ft 384 kts 189°
2026-05-03 21:33 50.39028 -0.01176 23081 ft 385 kts 194°
2026-05-03 21:33 50.36410 -0.02094 23573 ft 386 kts 194°
2026-05-03 21:33 50.33786 -0.03035 23988 ft 388 kts 194°
2026-05-03 21:33 50.31150 -0.03983 24388 ft 389 kts 194°
2026-05-03 21:34 50.28534 -0.04915 24779 ft 391 kts 194°
2026-05-03 21:34 50.25873 -0.05858 25173 ft 393 kts 194°
2026-05-03 21:34 50.23157 -0.06442 25524 ft 396 kts 184°
2026-05-03 21:34 50.20384 -0.06232 25882 ft 402 kts 174°
2026-05-03 21:35 50.17643 -0.05202 26234 ft 408 kts 164°
2026-05-03 21:35 50.15006 -0.03470 26559 ft 412 kts 160°
2026-05-03 21:35 50.12408 -0.01681 26908 ft 414 kts 160°
2026-05-03 21:35 50.09751 0.00044 27187 ft 413 kts 167°
2026-05-03 21:36 50.06980 0.01184 27465 ft 413 kts 169°
2026-05-03 21:36 50.04186 0.02301 27831 ft 414 kts 170°
2026-05-03 21:36 50.01386 0.03404 28159 ft 416 kts 170°
2026-05-03 21:36 49.98572 0.04505 28479 ft 417 kts 170°